EN

Hourly Weather Kyzlar-Birgan

Today, 1 August, Sunday

Time Temperature Precipitation Wind Pressure Humidity
00:00 +20°C° 0 mm 1 mps 707 mmHg 67%
01:00 +19°C° 0 mm 1 mps 707 mmHg 70%
02:00 +19°C° 0 mm 1 mps 707 mmHg 75%
03:00 +18°C° 0 mm 1 mps 707 mmHg 79%
04:00 +16°C° 0 mm 1 mps 707 mmHg 84%
05:00 +19°C° 0 mm 1 mps 708 mmHg 80%
06:00 +20°C° 0 mm 1 mps 708 mmHg 76%
07:00 +22°C° 0 mm 1 mps 708 mmHg 72%
08:00 +24°C° 0 mm 2 mps 709 mmHg 63%
09:00 +26°C° 0 mm 3 mps 709 mmHg 54%
10:00 +28°C° 0 mm 4 mps 709 mmHg 45%
11:00 +29°C° 0 mm 4 mps 709 mmHg 42%
12:00 +30°C° 0 mm 4 mps 709 mmHg 38%
13:00 +30°C° 0 mm 4 mps 709 mmHg 35%
14:00 +32°C° 0 mm 4 mps 709 mmHg 33%
15:00 +32°C° 0 mm 4 mps 709 mmHg 32%
16:00 +32°C° 0 mm 4 mps 709 mmHg 30%
17:00 +29°C° 0 mm 3 mps 709 mmHg 37%
18:00 +27°C° 0 mm 2 mps 709 mmHg 45%
19:00 +24°C° 0 mm 1 mps 709 mmHg 52%
20:00 +23°C° 0 mm 1 mps 709 mmHg 52%
21:00 +22°C° 0 mm 1 mps 709 mmHg 52%
22:00 +20°C° 0 mm 1 mps 709 mmHg 52%
23:00 +20°C° 0 mm 1 mps 709 mmHg 53%

Tomorrow, 2 August, Monday

Time Temperature Precipitation Wind Pressure Humidity
00:00 +20°C° 0 mm 1 mps 709 mmHg 53%
01:00 +20°C° 0 mm 1 mps 709 mmHg 54%
02:00 +19°C° 0 mm 1 mps 709 mmHg 57%
03:00 +18°C° 0 mm 1 mps 709 mmHg 60%
04:00 +16°C° 0 mm 0 mps 709 mmHg 63%
05:00 +17°C° 0 mm 0 mps 709 mmHg 61%
06:00 +19°C° 0 mm 0 mps 710 mmHg 59%
07:00 +20°C° 0 mm 0 mps 710 mmHg 57%
08:00 +24°C° 0 mm 1 mps 711 mmHg 50%
09:00 +26°C° 0 mm 2 mps 711 mmHg 43%
10:00 +29°C° 0 mm 3 mps 711 mmHg 37%
11:00 +29°C° 0 mm 3 mps 711 mmHg 34%
12:00 +30°C° 0 mm 3 mps 711 mmHg 32%
13:00 +32°C° 0 mm 4 mps 711 mmHg 29%
14:00 +31°C° 0 mm 3 mps 711 mmHg 28%
15:00 +31°C° 0 mm 3 mps 711 mmHg 27%
16:00 +31°C° 0 mm 3 mps 711 mmHg 26%
17:00 +28°C° 0 mm 2 mps 710 mmHg 35%
18:00 +26°C° 0 mm 2 mps 710 mmHg 43%
19:00 +24°C° 0 mm 1 mps 710 mmHg 52%
20:00 +22°C° 0 mm 1 mps 710 mmHg 54%
21:00 +21°C° 0 mm 1 mps 710 mmHg 57%
22:00 +19°C° 0 mm 1 mps 710 mmHg 60%
23:00 +18°C° 0 mm 1 mps 710 mmHg 61%

Day after tomorrow, 3 August, Tuesday

Time Temperature Precipitation Wind Pressure Humidity
00:00 +18°C° 0 mm 1 mps 710 mmHg 63%
01:00 +16°C° 0 mm 1 mps 710 mmHg 65%
02:00 +16°C° 0 mm 1 mps 710 mmHg 66%
03:00 +15°C° 0 mm 1 mps 710 mmHg 67%
04:00 +15°C° 0 mm 1 mps 710 mmHg 68%
05:00 +16°C° 0 mm 0 mps 711 mmHg 63%
06:00 +18°C° 0 mm 0 mps 711 mmHg 59%
07:00 +20°C° 0 mm 0 mps 711 mmHg 54%
08:00 +23°C° 0 mm 0 mps 711 mmHg 46%
09:00 +26°C° 0 mm 0 mps 712 mmHg 38%
10:00 +29°C° 0 mm 0 mps 712 mmHg 30%
11:00 +32°C° 0 mm 1 mps 712 mmHg 29%
12:00 +33°C° 0 mm 1 mps 712 mmHg 27%
13:00 +34°C° 0 mm 1 mps 712 mmHg 25%
14:00 +33°C° 0 mm 1 mps 711 mmHg 25%
15:00 +33°C° 0 mm 1 mps 711 mmHg 25%
16:00 +33°C° 0 mm 1 mps 711 mmHg 25%
17:00 +31°C° 0 mm 1 mps 710 mmHg 32%
18:00 +29°C° 0 mm 1 mps 710 mmHg 40%
19:00 +27°C° 0 mm 1 mps 710 mmHg 48%
20:00 +25°C° 0 mm 1 mps 710 mmHg 49%
21:00 +24°C° 0 mm 1 mps 710 mmHg 51%
22:00 +22°C° 0 mm 1 mps 710 mmHg 52%
23:00 +22°C° 0 mm 1 mps 710 mmHg 54%

4 August, Wednesday

Time Temperature Precipitation Wind Pressure Humidity
00:00 +21°C° 0 mm 1 mps 710 mmHg 55%
01:00 +20°C° 0 mm 1 mps 710 mmHg 56%
02:00 +20°C° 0 mm 1 mps 709 mmHg 56%
03:00 +20°C° 0 mm 1 mps 709 mmHg 57%
04:00 +19°C° 0 mm 1 mps 709 mmHg 57%
05:00 +21°C° 0 mm 1 mps 710 mmHg 55%
06:00 +22°C° 0 mm 1 mps 710 mmHg 52%
07:00 +24°C° 0 mm 1 mps 710 mmHg 50%
08:00 +27°C° 0 mm 1 mps 710 mmHg 42%
09:00 +30°C° 0 mm 2 mps 710 mmHg 34%
10:00 +34°C° 0 mm 2 mps 711 mmHg 26%
11:00 +35°C° 0 mm 2 mps 710 mmHg 23%
12:00 +36°C° 0 mm 2 mps 710 mmHg 20%
13:00 +38°C° 0 mm 2 mps 710 mmHg 16%
14:00 +37°C° 0 mm 2 mps 710 mmHg 19%
15:00 +36°C° 0 mm 2 mps 709 mmHg 22%
16:00 +35°C° 0 mm 2 mps 709 mmHg 25%
17:00 +31°C° 0.1 mm 3 mps 709 mmHg 35%
18:00 +28°C° 0.1 mm 4 mps 710 mmHg 45%
19:00 +25°C° 0.1 mm 4 mps 710 mmHg 55%
20:00 +22°C° 0.2 mm 3 mps 709 mmHg 60%
21:00 +21°C° 0.2 mm 2 mps 709 mmHg 65%
22:00 +20°C° 0.2 mm 2 mps 709 mmHg 69%
23:00 +20°C° 0 mm 1 mps 709 mmHg 69%

5 August, Thursday

Time Temperature Precipitation Wind Pressure Humidity
00:00 +20°C° 0 mm 1 mps 709 mmHg 68%
01:00 +18°C° 0 mm 0 mps 709 mmHg 67%
02:00 +18°C° 0 mm 0 mps 709 mmHg 69%
03:00 +20°C° 0 mm 1 mps 708 mmHg 70%
04:00 +20°C° 0 mm 1 mps 708 mmHg 71%
05:00 +21°C° 0 mm 1 mps 708 mmHg 68%
06:00 +22°C° 0 mm 1 mps 708 mmHg 65%
07:00 +23°C° 0 mm 1 mps 708 mmHg 62%
08:00 +26°C° 0 mm 1 mps 708 mmHg 53%
09:00 +28°C° 0 mm 1 mps 708 mmHg 44%
10:00 +31°C° 0 mm 1 mps 708 mmHg 34%
11:00 +32°C° 0 mm 2 mps 708 mmHg 30%
12:00 +35°C° 0 mm 2 mps 708 mmHg 26%
13:00 +36°C° 0 mm 2 mps 707 mmHg 22%
14:00 +35°C° 0 mm 3 mps 707 mmHg 24%
15:00 +34°C° 0 mm 3 mps 706 mmHg 26%
16:00 +33°C° 0 mm 3 mps 705 mmHg 29%
17:00 +29°C° 0 mm 3 mps 705 mmHg 43%
18:00 +25°C° 0 mm 2 mps 705 mmHg 57%
19:00 +21°C° 0 mm 2 mps 705 mmHg 71%
20:00 +20°C° 0.2 mm 2 mps 705 mmHg 77%
21:00 +18°C° 0.2 mm 2 mps 705 mmHg 83%
22:00 +17°C° 0.2 mm 2 mps 705 mmHg 89%
23:00 +17°C° 0.5 mm 2 mps 706 mmHg 92%

6 August, Friday

Time Temperature Precipitation Wind Pressure Humidity
00:00 +16°C° 0.5 mm 2 mps 706 mmHg 95%
01:00 +16°C° 0.5 mm 2 mps 706 mmHg 97%
02:00 +16°C° 2.7 mm 2 mps 706 mmHg 98%
03:00 +16°C° 2.7 mm 2 mps 705 mmHg 98%
04:00 +16°C° 2.7 mm 2 mps 705 mmHg 98%
05:00 +16°C° 1.1 mm 2 mps 705 mmHg 98%
06:00 +16°C° 1.1 mm 3 mps 705 mmHg 97%
07:00 +16°C° 1.1 mm 3 mps 705 mmHg 97%
08:00 +16°C° 1.8 mm 3 mps 706 mmHg 95%
09:00 +16°C° 1.8 mm 3 mps 706 mmHg 94%
10:00 +17°C° 1.8 mm 3 mps 706 mmHg 93%
11:00 +18°C° 0.4 mm 3 mps 707 mmHg 85%
12:00 +19°C° 0.4 mm 4 mps 707 mmHg 77%
13:00 +20°C° 0.4 mm 4 mps 708 mmHg 68%
14:00 +21°C° 0 mm 4 mps 708 mmHg 60%
15:00 +22°C° 0 mm 4 mps 708 mmHg 52%
16:00 +23°C° 0 mm 4 mps 708 mmHg 43%
17:00 +22°C° 0 mm 3 mps 708 mmHg 50%
18:00 +20°C° 0 mm 2 mps 708 mmHg 56%
19:00 +19°C° 0 mm 2 mps 709 mmHg 63%
20:00 +18°C° 0 mm 1 mps 709 mmHg 68%
21:00 +16°C° 0 mm 1 mps 709 mmHg 74%
22:00 +14°C° 0 mm 1 mps 709 mmHg 79%
23:00 +14°C° 0 mm 1 mps 709 mmHg 82%
Show more